Location: Praha
(50.0830°N, 14.4670°E)
Time: 00:15:16
(UTC+02:00)

ISS - Pass Details

Date: 19 September 2023
Orbit: 414 x 421 km, 51.6° (Epoch: 25 September)

Event Time Altitude Azimuth Distance (km) Brightness Sun altitude
Rises 22:24:47 0° 281° (W) 2,355 0.8 -29.3°
Reaches altitude 10° 22:26:53 10° 284° (WNW) 1,492 -0.3 -29.5°
Enters shadow 22:27:14 12° 284° (WNW) 1,356 -0.5 -29.6°
